GEFSCGP_prec_meanprecacc_156.txt.gz
Total_Precipitation_Accumulation
0.53 0.68 0.78 0.74 0.77 0.82 0.71 0.65 0.61 0.48 0.41 0.41 0.38 0.38 0.39 0.35 0.31 0.30 0.31 0.29 0.28 0.24 0.20 0.13 0.10 0.10 0.16 0.20 0.18 0.19 0.24 0.27 0.25 0.24 0.29 0.34 0.35 0.44 0.51 0.59 0.64 0.69 0.72 0.80
0.51 0.55 0.51 0.54 0.60 0.71 0.71 0.70 0.65 0.57 0.41 0.38 0.37 0.39 0.36 0.32 0.29 0.24 0.22 0.21 0.22 0.22 0.20 0.14 0.09 0.06 0.05 0.07 0.09 0.13 0.15 0.18 0.18 0.18 0.23 0.32 0.39 0.45 0.58 0.74 0.85 0.87 0.85 0.90
0.46 0.44 0.40 0.43 0.50 0.62 0.61 0.58 0.52 0.57 0.50 0.45 0.48 0.49 0.40 0.36 0.30 0.23 0.18 0.19 0.20 0.20 0.17 0.15 0.12 0.08 0.05 0.04 0.04 0.07 0.12 0.16 0.16 0.23 0.41 0.68 0.93 1.01 1.03 1.05 1.19 1.29 1.24 1.19
0.58 0.40 0.34 0.37 0.42 0.46 0.63 0.47 0.41 0.49 0.59 0.56 0.46 0.52 0.36 0.35 0.34 0.27 0.20 0.19 0.20 0.21 0.19 0.15 0.11 0.11 0.06 0.05 0.05 0.06 0.11 0.16 0.20 0.36 0.68 1.07 1.40 1.49 1.50 1.62 1.66 1.71 1.63 1.50
0.47 0.31 0.29 0.34 0.34 0.40 0.60 0.48 0.49 0.53 0.54 0.50 0.32 0.33 0.27 0.28 0.34 0.30 0.26 0.25 0.27 0.25 0.22 0.17 0.14 0.12 0.12 0.12 0.14 0.15 0.22 0.34 0.51 0.66 0.83 1.13 1.32 1.44 1.59 1.75 1.88 1.99 2.11 2.08
0.34 0.26 0.27 0.29 0.30 0.34 0.42 0.51 0.64 0.64 0.60 0.55 0.26 0.23 0.25 0.26 0.28 0.30 0.29 0.31 0.30 0.26 0.20 0.17 0.17 0.17 0.21 0.27 0.29 0.32 0.41 0.51 0.58 0.70 0.84 0.98 1.07 1.24 1.44 1.59 1.75 1.90 2.01 2.04
0.34 0.29 0.24 0.23 0.36 0.40 0.41 0.58 0.82 0.89 0.82 0.57 0.21 0.20 0.24 0.20 0.20 0.22 0.24 0.22 0.20 0.20 0.20 0.19 0.18 0.23 0.29 0.36 0.39 0.45 0.53 0.63 0.65 0.73 0.83 0.91 0.97 1.10 1.27 1.32 1.36 1.39 1.39 1.42
0.34 0.35 0.23 0.18 0.25 0.32 0.33 0.40 0.65 0.79 0.65 0.44 0.22 0.26 0.29 0.18 0.13 0.10 0.12 0.14 0.17 0.22 0.25 0.24 0.24 0.32 0.38 0.44 0.54 0.61 0.68 0.70 0.72 0.80 0.89 0.90 0.99 1.11 1.21 1.15 1.10 1.13 1.16 1.24
0.30 0.29 0.16 0.16 0.17 0.20 0.30 0.31 0.34 0.43 0.34 0.35 0.25 0.24 0.18 0.09 0.08 0.07 0.11 0.18 0.24 0.31 0.34 0.35 0.38 0.43 0.46 0.53 0.62 0.69 0.74 0.76 0.83 0.86 0.95 1.09 1.13 1.13 1.11 1.00 0.95 0.96 0.93 0.94
0.23 0.28 0.19 0.18 0.20 0.21 0.23 0.29 0.36 0.41 0.44 0.41 0.27 0.23 0.18 0.12 0.12 0.15 0.20 0.27 0.38 0.48 0.50 0.52 0.58 0.62 0.62 0.61 0.68 0.74 0.81 0.87 0.90 0.92 1.03 1.20 1.14 0.92 0.76 0.66 0.71 0.75 0.79 0.83
0.16 0.23 0.24 0.20 0.18 0.20 0.23 0.22 0.28 0.34 0.33 0.49 0.57 0.57 0.51 0.49 0.41 0.45 0.46 0.53 0.68 0.72 0.73 0.73 0.76 0.79 0.72 0.72 0.76 0.78 0.83 0.94 0.97 0.93 1.03 1.06 0.85 0.61 0.49 0.48 0.46 0.44 0.47 0.52
0.10 0.19 0.22 0.17 0.13 0.13 0.18 0.18 0.18 0.32 0.34 0.40 0.63 0.71 0.68 0.73 0.71 0.82 0.88 1.00 0.94 0.89 0.88 0.81 0.76 0.74 0.62 0.61 0.69 0.76 0.85 0.90 0.84 0.80 0.79 0.65 0.47 0.38 0.34 0.31 0.25 0.22 0.22 0.22
0.09 0.15 0.27 0.27 0.22 0.13 0.13 0.11 0.11 0.16 0.31 0.39 0.65 0.76 0.64 0.72 0.83 0.97 1.07 1.08 0.89 0.73 0.63 0.57 0.55 0.49 0.43 0.45 0.50 0.54 0.66 0.72 0.55 0.44 0.42 0.39 0.32 0.30 0.26 0.21 0.19 0.17 0.16 0.16
0.10 0.14 0.22 0.28 0.23 0.12 0.10 0.08 0.08 0.12 0.26 0.34 0.49 0.58 0.55 0.66 0.81 0.90 0.93 0.81 0.59 0.43 0.34 0.28 0.22 0.21 0.22 0.24 0.24 0.22 0.27 0.37 0.32 0.26 0.23 0.22 0.23 0.23 0.23 0.23 0.24 0.18 0.14 0.16
0.09 0.12 0.12 0.11 0.07 0.06 0.06 0.07 0.08 0.11 0.16 0.28 0.37 0.40 0.43 0.45 0.47 0.49 0.52 0.47 0.35 0.24 0.15 0.10 0.08 0.09 0.12 0.13 0.12 0.10 0.08 0.10 0.14 0.16 0.16 0.18 0.18 0.19 0.18 0.20 0.20 0.17 0.14 0.12
0.08 0.08 0.07 0.08 0.05 0.04 0.04 0.05 0.08 0.10 0.14 0.20 0.23 0.24 0.22 0.17 0.13 0.12 0.14 0.17 0.14 0.09 0.05 0.04 0.03 0.03 0.04 0.04 0.05 0.04 0.02 0.02 0.02 0.03 0.05 0.08 0.11 0.13 0.15 0.15 0.15 0.13 0.11 0.09
0.08 0.08 0.08 0.07 0.05 0.07 0.06 0.03 0.05 0.08 0.09 0.11 0.14 0.18 0.17 0.11 0.05 0.03 0.03 0.04 0.05 0.05 0.05 0.04 0.03 0.02 0.03 0.03 0.03 0.04 0.03 0.02 0.01 0.01 0.02 0.02 0.03 0.04 0.05 0.05 0.06 0.05 0.04 0.04
0.07 0.09 0.10 0.09 0.09 0.09 0.05 0.02 0.02 0.03 0.03 0.05 0.07 0.08 0.09 0.06 0.02 0.02 0.02 0.02 0.02 0.02 0.03 0.04 0.03 0.02 0.03 0.05 0.05 0.05 0.05 0.03 0.02 0.01 0.01 0.01 0.02 0.02 0.02 0.02 0.02 0.02 0.02 0.02
0.07 0.08 0.11 0.11 0.10 0.05 0.04 0.03 0.03 0.02 0.01 0.01 0.01 0.02 0.02 0.01 0.01 0.01 0.01 0.01 0.01 0.01 0.02 0.03 0.04 0.03 0.03 0.05 0.06 0.06 0.05 0.03 0.02 0.02 0.02 0.02 0.02 0.02 0.02 0.02 0.02 0.01 0.02 0.03
0.08 0.08 0.11 0.11 0.10 0.08 0.04 0.02 0.02 0.02 0.02 0.00 0.00 0.01 0.01 0.00 0.01 0.01 0.01 0.01 0.01 0.01 0.02 0.02 0.02 0.02 0.02 0.03 0.05 0.05 0.04 0.02 0.01 0.02 0.03 0.03 0.02 0.02 0.03 0.03 0.03 0.03 0.03 0.04
0.07 0.07 0.08 0.09 0.09 0.05 0.02 0.01 0.01 0.03 0.03 0.00 0.00 0.00 0.00 0.00 0.00 0.01 0.01 0.00 0.01 0.01 0.01 0.01 0.02 0.02 0.01 0.01 0.02 0.04 0.03 0.01 0.01 0.02 0.04 0.04 0.03 0.03 0.05 0.05 0.04 0.04 0.04 0.04
0.05 0.05 0.05 0.06 0.08 0.05 0.02 0.01 0.01 0.01 0.01 0.00 0.00 0.00 0.00 0.00 0.00 0.00 0.01 0.01 0.01 0.01 0.01 0.01 0.02 0.02 0.02 0.02 0.02 0.02 0.03 0.03 0.02 0.02 0.03 0.04 0.04 0.04 0.05 0.06 0.05 0.05 0.05 0.05
0.05 0.04 0.04 0.03 0.03 0.02 0.01 0.01 0.01 0.01 0.01 0.00 0.00 0.01 0.01 0.01 0.00 0.00 0.00 0.00 0.00 0.00 0.00 0.01 0.02 0.02 0.01 0.01 0.02 0.02 0.03 0.03 0.03 0.02 0.03 0.03 0.05 0.05 0.05 0.05 0.04 0.05 0.05 0.06
0.04 0.03 0.03 0.02 0.01 0.02 0.01 0.00 0.01 0.01 0.00 0.00 0.00 0.01 0.01 0.01 0.00 0.00 0.00 0.00 0.00 0.00 0.00 0.01 0.01 0.01 0.01 0.01 0.02 0.04 0.04 0.05 0.04 0.03 0.03 0.03 0.03 0.04 0.05 0.04 0.03 0.03 0.04 0.04
0.04 0.03 0.03 0.02 0.01 0.01 0.01 0.00 0.00 0.00 0.00 0.00 0.00 0.00 0.01 0.01 0.00 0.00 0.00 0.00 0.00 0.00 0.01 0.01 0.01 0.01 0.01 0.02 0.03 0.04 0.04 0.05 0.05 0.05 0.04 0.03 0.02 0.03 0.04 0.03 0.02 0.02 0.02 0.03
0.02 0.02 0.02 0.02 0.01 0.01 0.01 0.01 0.00 0.00 0.00 0.00 0.00 0.00 0.00 0.01 0.01 0.00 0.00 0.00 0.01 0.01 0.01 0.01 0.02 0.02 0.02 0.02 0.03 0.04 0.04 0.04 0.05 0.06 0.04 0.03 0.02 0.02 0.02 0.04 0.03 0.03 0.03 0.03

GEFSCGP_prec_meanprecacc_162.txt.gz
Total_Precipitation_Accumulation
0.54 0.69 0.79 0.75 0.78 0.83 0.73 0.67 0.63 0.51 0.42 0.43 0.40 0.39 0.41 0.37 0.33 0.34 0.36 0.33 0.36 0.28 0.23 0.15 0.11 0.11 0.17 0.21 0.19 0.19 0.24 0.27 0.25 0.24 0.29 0.34 0.35 0.44 0.51 0.59 0.64 0.69 0.72 0.80
0.54 0.57 0.53 0.54 0.61 0.72 0.72 0.72 0.67 0.59 0.43 0.40 0.40 0.41 0.37 0.34 0.32 0.27 0.24 0.22 0.26 0.24 0.22 0.15 0.10 0.08 0.06 0.07 0.10 0.13 0.15 0.18 0.18 0.18 0.23 0.32 0.39 0.45 0.58 0.74 0.85 0.87 0.85 0.91
0.50 0.47 0.41 0.44 0.51 0.64 0.63 0.59 0.53 0.59 0.53 0.48 0.50 0.51 0.41 0.38 0.34 0.27 0.21 0.20 0.23 0.22 0.19 0.16 0.13 0.10 0.06 0.05 0.05 0.08 0.12 0.16 0.16 0.23 0.41 0.68 0.93 1.01 1.03 1.05 1.19 1.29 1.24 1.19
0.61 0.42 0.36 0.38 0.43 0.47 0.64 0.48 0.41 0.51 0.63 0.60 0.49 0.54 0.38 0.37 0.38 0.32 0.25 0.21 0.21 0.22 0.20 0.16 0.13 0.12 0.07 0.06 0.05 0.06 0.11 0.16 0.20 0.36 0.69 1.07 1.40 1.49 1.50 1.62 1.66 1.72 1.64 1.50
0.49 0.33 0.31 0.35 0.35 0.41 0.61 0.49 0.49 0.53 0.56 0.52 0.34 0.34 0.28 0.30 0.37 0.35 0.31 0.29 0.28 0.25 0.22 0.18 0.15 0.13 0.12 0.13 0.14 0.15 0.22 0.34 0.51 0.66 0.83 1.13 1.33 1.44 1.59 1.75 1.89 2.00 2.11 2.09
0.35 0.27 0.29 0.31 0.31 0.35 0.45 0.54 0.65 0.65 0.61 0.57 0.27 0.24 0.26 0.27 0.29 0.31 0.32 0.34 0.32 0.27 0.21 0.19 0.17 0.18 0.22 0.27 0.29 0.32 0.42 0.51 0.59 0.70 0.84 0.98 1.07 1.24 1.44 1.59 1.76 1.90 2.02 2.04
0.35 0.30 0.25 0.24 0.38 0.41 0.43 0.61 0.84 0.91 0.84 0.59 0.22 0.21 0.25 0.21 0.20 0.22 0.25 0.24 0.23 0.24 0.22 0.20 0.19 0.25 0.30 0.36 0.39 0.46 0.54 0.63 0.66 0.73 0.83 0.91 0.97 1.10 1.27 1.32 1.36 1.40 1.39 1.43
0.34 0.36 0.23 0.19 0.26 0.32 0.34 0.42 0.68 0.82 0.67 0.46 0.23 0.28 0.30 0.19 0.14 0.10 0.13 0.16 0.19 0.26 0.27 0.26 0.25 0.33 0.40 0.45 0.54 0.62 0.70 0.71 0.73 0.80 0.89 0.90 0.99 1.11 1.21 1.15 1.10 1.13 1.16 1.24
0.30 0.29 0.16 0.16 0.17 0.20 0.31 0.32 0.37 0.46 0.37 0.38 0.27 0.27 0.20 0.10 0.08 0.08 0.13 0.20 0.27 0.35 0.37 0.37 0.38 0.44 0.48 0.55 0.63 0.69 0.74 0.77 0.83 0.86 0.95 1.09 1.13 1.13 1.11 1.00 0.95 0.97 0.93 0.94
0.24 0.28 0.20 0.18 0.21 0.21 0.24 0.31 0.39 0.44 0.47 0.46 0.30 0.26 0.21 0.14 0.14 0.18 0.24 0.32 0.42 0.52 0.54 0.54 0.59 0.64 0.65 0.63 0.68 0.74 0.81 0.87 0.90 0.92 1.03 1.20 1.14 0.92 0.76 0.66 0.71 0.75 0.80 0.84
0.16 0.25 0.25 0.21 0.19 0.21 0.24 0.24 0.30 0.36 0.35 0.53 0.64 0.63 0.54 0.52 0.43 0.47 0.50 0.57 0.72 0.74 0.76 0.75 0.77 0.80 0.74 0.73 0.76 0.79 0.84 0.94 0.98 0.94 1.03 1.06 0.85 0.61 0.49 0.48 0.46 0.45 0.47 0.53
0.11 0.19 0.23 0.18 0.14 0.13 0.19 0.20 0.20 0.34 0.37 0.45 0.74 0.81 0.74 0.76 0.73 0.83 0.90 1.04 0.98 0.93 0.92 0.84 0.78 0.75 0.64 0.63 0.70 0.76 0.86 0.90 0.84 0.81 0.79 0.65 0.47 0.38 0.35 0.31 0.26 0.22 0.22 0.22
0.10 0.16 0.27 0.28 0.23 0.14 0.14 0.12 0.11 0.17 0.34 0.44 0.74 0.84 0.68 0.75 0.85 1.00 1.09 1.10 0.91 0.76 0.65 0.60 0.57 0.50 0.44 0.46 0.50 0.55 0.67 0.73 0.55 0.44 0.42 0.39 0.32 0.30 0.26 0.22 0.19 0.17 0.17 0.16
0.11 0.14 0.23 0.29 0.25 0.13 0.12 0.09 0.09 0.14 0.31 0.37 0.52 0.61 0.58 0.67 0.83 0.92 0.95 0.83 0.61 0.45 0.36 0.30 0.24 0.22 0.24 0.26 0.25 0.23 0.28 0.38 0.32 0.26 0.23 0.23 0.23 0.23 0.23 0.23 0.24 0.18 0.15 0.16
0.11 0.13 0.13 0.12 0.08 0.07 0.07 0.07 0.09 0.12 0.17 0.29 0.38 0.42 0.45 0.46 0.48 0.50 0.54 0.49 0.37 0.25 0.17 0.11 0.10 0.11 0.14 0.15 0.13 0.11 0.09 0.11 0.16 0.17 0.16 0.18 0.18 0.19 0.18 0.20 0.20 0.17 0.14 0.12
0.10 0.11 0.08 0.09 0.06 0.05 0.04 0.05 0.08 0.10 0.14 0.21 0.23 0.25 0.22 0.18 0.14 0.13 0.16 0.19 0.16 0.10 0.06 0.05 0.05 0.05 0.06 0.06 0.05 0.05 0.03 0.04 0.05 0.05 0.06 0.08 0.11 0.13 0.15 0.15 0.15 0.13 0.11 0.09
0.10 0.10 0.10 0.09 0.06 0.07 0.06 0.03 0.05 0.08 0.09 0.12 0.15 0.18 0.18 0.12 0.06 0.04 0.05 0.06 0.07 0.06 0.06 0.06 0.04 0.04 0.05 0.05 0.04 0.05 0.04 0.03 0.03 0.02 0.02 0.03 0.04 0.05 0.05 0.05 0.06 0.05 0.04 0.04
0.08 0.10 0.11 0.10 0.11 0.11 0.05 0.03 0.03 0.03 0.03 0.05 0.07 0.09 0.10 0.07 0.03 0.03 0.03 0.04 0.04 0.04 0.05 0.06 0.05 0.04 0.06 0.06 0.06 0.07 0.06 0.05 0.03 0.02 0.02 0.02 0.02 0.03 0.03 0.02 0.02 0.02 0.02 0.02
0.08 0.10 0.13 0.12 0.12 0.06 0.04 0.04 0.04 0.02 0.01 0.01 0.02 0.02 0.02 0.02 0.02 0.02 0.02 0.03 0.03 0.04 0.04 0.05 0.06 0.05 0.06 0.06 0.08 0.08 0.07 0.05 0.04 0.03 0.02 0.02 0.02 0.03 0.03 0.03 0.02 0.02 0.02 0.03
0.09 0.10 0.13 0.13 0.12 0.10 0.05 0.03 0.02 0.02 0.02 0.01 0.01 0.01 0.01 0.01 0.01 0.01 0.01 0.01 0.02 0.03 0.03 0.04 0.04 0.04 0.04 0.05 0.07 0.08 0.07 0.05 0.03 0.03 0.04 0.04 0.03 0.04 0.04 0.04 0.04 0.04 0.04 0.04
0.08 0.09 0.09 0.11 0.10 0.06 0.02 0.02 0.02 0.04 0.03 0.01 0.01 0.01 0.01 0.00 0.01 0.01 0.01 0.01 0.02 0.02 0.02 0.03 0.04 0.04 0.03 0.03 0.05 0.07 0.08 0.05 0.03 0.04 0.05 0.05 0.04 0.04 0.07 0.08 0.06 0.05 0.05 0.05
0.08 0.07 0.06 0.07 0.09 0.06 0.02 0.02 0.02 0.02 0.01 0.01 0.01 0.01 0.01 0.01 0.00 0.00 0.01 0.01 0.01 0.01 0.02 0.02 0.03 0.02 0.03 0.04 0.05 0.06 0.08 0.07 0.05 0.05 0.06 0.06 0.07 0.07 0.09 0.09 0.07 0.06 0.06 0.06
0.08 0.07 0.06 0.04 0.04 0.03 0.02 0.03 0.02 0.01 0.01 0.01 0.01 0.01 0.01 0.01 0.01 0.00 0.00 0.01 0.01 0.01 0.01 0.02 0.02 0.02 0.02 0.03 0.04 0.05 0.07 0.08 0.07 0.06 0.06 0.07 0.07 0.07 0.08 0.08 0.07 0.06 0.07 0.08
0.08 0.06 0.06 0.04 0.02 0.03 0.03 0.02 0.01 0.01 0.01 0.01 0.01 0.01 0.01 0.01 0.01 0.00 0.00 0.01 0.01 0.00 0.00 0.01 0.02 0.02 0.02 0.03 0.04 0.07 0.09 0.10 0.10 0.09 0.08 0.07 0.07 0.07 0.07 0.07 0.06 0.05 0.06 0.06
0.07 0.06 0.06 0.06 0.03 0.03 0.04 0.02 0.01 0.01 0.00 0.00 0.00 0.01 0.01 0.01 0.00 0.00 0.00 0.01 0.01 0.00 0.01 0.01 0.02 0.02 0.03 0.03 0.05 0.06 0.08 0.10 0.10 0.11 0.09 0.08 0.07 0.06 0.07 0.06 0.05 0.04 0.04 0.05
0.04 0.04 0.06 0.07 0.04 0.03 0.03 0.02 0.01 0.01 0.00 0.00 0.00 0.00 0.01 0.01 0.01 0.00 0.01 0.01 0.01 0.01 0.01 0.03 0.04 0.04 0.04 0.04 0.05 0.06 0.07 0.07 0.08 0.10 0.09 0.07 0.06 0.05 0.05 0.06 0.05 0.05 0.04 0.04

GEFSCGP_prec_meanprecacc_168.txt.gz
Total_Precipitation_Accumulation
0.55 0.70 0.80 0.75 0.78 0.84 0.73 0.68 0.64 0.51 0.42 0.43 0.41 0.39 0.41 0.38 0.35 0.35 0.37 0.34 0.38 0.30 0.25 0.18 0.15 0.14 0.19 0.23 0.21 0.21 0.25 0.27 0.26 0.24 0.29 0.34 0.35 0.44 0.51 0.59 0.64 0.69 0.72 0.80
0.55 0.58 0.53 0.55 0.61 0.73 0.73 0.72 0.68 0.60 0.44 0.40 0.40 0.41 0.38 0.35 0.33 0.28 0.25 0.24 0.28 0.26 0.23 0.17 0.13 0.10 0.07 0.08 0.11 0.15 0.16 0.18 0.18 0.18 0.23 0.32 0.39 0.45 0.58 0.74 0.85 0.87 0.85 0.91
0.53 0.48 0.42 0.45 0.52 0.64 0.64 0.60 0.54 0.61 0.53 0.48 0.51 0.52 0.42 0.38 0.35 0.29 0.22 0.22 0.25 0.24 0.21 0.18 0.14 0.11 0.07 0.06 0.06 0.10 0.13 0.16 0.16 0.23 0.41 0.68 0.93 1.01 1.03 1.05 1.19 1.29 1.25 1.19
0.64 0.44 0.37 0.40 0.44 0.48 0.66 0.48 0.41 0.51 0.63 0.61 0.50 0.55 0.38 0.37 0.39 0.32 0.26 0.22 0.23 0.24 0.22 0.17 0.15 0.13 0.08 0.07 0.07 0.08 0.12 0.17 0.20 0.36 0.69 1.07 1.40 1.49 1.50 1.62 1.66 1.72 1.64 1.50
0.51 0.35 0.34 0.37 0.36 0.42 0.62 0.50 0.50 0.54 0.57 0.53 0.34 0.35 0.28 0.30 0.37 0.35 0.32 0.30 0.30 0.26 0.23 0.19 0.16 0.14 0.13 0.13 0.15 0.16 0.22 0.35 0.51 0.66 0.83 1.13 1.33 1.44 1.59 1.75 1.89 2.00 2.11 2.09
0.37 0.28 0.31 0.33 0.32 0.36 0.45 0.54 0.65 0.65 0.61 0.57 0.27 0.24 0.27 0.27 0.29 0.32 0.33 0.35 0.33 0.27 0.21 0.20 0.19 0.19 0.23 0.28 0.30 0.33 0.42 0.51 0.59 0.70 0.84 0.98 1.07 1.24 1.44 1.59 1.76 1.90 2.02 2.04
0.36 0.31 0.27 0.26 0.39 0.43 0.43 0.61 0.85 0.91 0.85 0.59 0.22 0.21 0.25 0.21 0.20 0.23 0.25 0.25 0.24 0.25 0.23 0.22 0.21 0.26 0.31 0.37 0.40 0.46 0.55 0.63 0.66 0.73 0.83 0.91 0.97 1.10 1.27 1.32 1.36 1.40 1.39 1.43
0.35 0.37 0.24 0.21 0.28 0.34 0.35 0.43 0.69 0.84 0.68 0.47 0.23 0.28 0.30 0.19 0.14 0.11 0.13 0.17 0.20 0.27 0.29 0.28 0.26 0.33 0.40 0.46 0.55 0.62 0.70 0.71 0.73 0.80 0.90 0.90 0.99 1.11 1.21 1.15 1.10 1.13 1.16 1.24
0.31 0.30 0.17 0.17 0.19 0.22 0.33 0.34 0.38 0.47 0.37 0.39 0.27 0.27 0.21 0.11 0.09 0.08 0.13 0.21 0.28 0.36 0.38 0.38 0.39 0.44 0.49 0.56 0.64 0.69 0.75 0.77 0.83 0.86 0.95 1.09 1.13 1.13 1.11 1.00 0.95 0.97 0.93 0.94
0.24 0.29 0.21 0.19 0.22 0.23 0.27 0.34 0.40 0.45 0.50 0.47 0.31 0.26 0.22 0.14 0.14 0.19 0.25 0.32 0.42 0.52 0.55 0.55 0.60 0.64 0.65 0.64 0.69 0.75 0.81 0.87 0.90 0.92 1.03 1.20 1.14 0.92 0.76 0.66 0.71 0.75 0.80 0.84
0.16 0.25 0.25 0.22 0.21 0.23 0.28 0.27 0.31 0.37 0.37 0.55 0.66 0.65 0.55 0.52 0.43 0.48 0.50 0.57 0.72 0.75 0.77 0.76 0.78 0.81 0.75 0.75 0.78 0.80 0.84 0.94 0.98 0.94 1.03 1.06 0.85 0.61 0.49 0.48 0.46 0.45 0.47 0.53
0.11 0.20 0.23 0.18 0.14 0.14 0.21 0.21 0.21 0.35 0.38 0.46 0.76 0.83 0.74 0.77 0.74 0.84 0.91 1.04 0.99 0.94 0.93 0.85 0.79 0.76 0.65 0.64 0.72 0.77 0.86 0.91 0.85 0.81 0.79 0.65 0.47 0.38 0.35 0.32 0.26 0.22 0.22 0.23
0.11 0.17 0.27 0.28 0.23 0.15 0.14 0.13 0.12 0.17 0.34 0.45 0.77 0.87 0.69 0.75 0.86 1.00 1.10 1.11 0.92 0.76 0.66 0.60 0.57 0.51 0.45 0.47 0.52 0.56 0.67 0.73 0.56 0.45 0.43 0.39 0.32 0.30 0.26 0.22 0.19 0.17 0.17 0.16
0.12 0.15 0.23 0.29 0.25 0.14 0.12 0.09 0.09 0.14 0.31 0.38 0.54 0.63 0.58 0.68 0.83 0.93 0.96 0.84 0.61 0.46 0.37 0.31 0.25 0.23 0.25 0.27 0.26 0.23 0.28 0.38 0.33 0.26 0.23 0.23 0.23 0.23 0.23 0.23 0.24 0.18 0.15 0.16
0.13 0.15 0.13 0.12 0.08 0.07 0.07 0.08 0.09 0.12 0.17 0.30 0.39 0.42 0.45 0.46 0.49 0.51 0.54 0.50 0.38 0.26 0.17 0.12 0.11 0.11 0.15 0.15 0.14 0.12 0.10 0.12 0.17 0.17 0.17 0.19 0.19 0.19 0.18 0.20 0.20 0.17 0.14 0.12
0.12 0.12 0.10 0.09 0.06 0.05 0.04 0.06 0.08 0.11 0.14 0.22 0.24 0.25 0.23 0.18 0.15 0.14 0.17 0.20 0.17 0.11 0.07 0.06 0.05 0.05 0.07 0.07 0.06 0.05 0.04 0.04 0.06 0.06 0.07 0.09 0.11 0.13 0.15 0.15 0.15 0.13 0.11 0.09
0.12 0.12 0.12 0.09 0.06 0.07 0.06 0.03 0.05 0.08 0.09 0.12 0.15 0.19 0.19 0.12 0.06 0.05 0.06 0.06 0.07 0.07 0.07 0.06 0.04 0.04 0.06 0.05 0.05 0.06 0.05 0.04 0.04 0.03 0.03 0.04 0.05 0.05 0.06 0.05 0.06 0.05 0.05 0.04
0.10 0.12 0.14 0.12 0.11 0.11 0.06 0.03 0.03 0.03 0.04 0.06 0.08 0.09 0.10 0.07 0.04 0.03 0.04 0.04 0.04 0.04 0.05 0.07 0.06 0.05 0.07 0.07 0.07 0.08 0.08 0.06 0.03 0.03 0.03 0.03 0.04 0.04 0.03 0.03 0.03 0.02 0.02 0.02
0.10 0.12 0.16 0.14 0.13 0.07 0.04 0.04 0.04 0.03 0.02 0.02 0.02 0.02 0.02 0.02 0.03 0.02 0.02 0.03 0.04 0.04 0.04 0.05 0.06 0.06 0.07 0.07 0.09 0.09 0.08 0.07 0.05 0.04 0.04 0.04 0.05 0.06 0.05 0.04 0.04 0.03 0.03 0.03
0.11 0.12 0.15 0.14 0.13 0.10 0.05 0.03 0.03 0.03 0.03 0.01 0.01 0.01 0.01 0.02 0.02 0.01 0.01 0.02 0.03 0.04 0.04 0.04 0.05 0.05 0.05 0.07 0.09 0.10 0.08 0.07 0.05 0.05 0.06 0.06 0.05 0.05 0.06 0.05 0.06 0.05 0.05 0.05
0.11 0.12 0.11 0.12 0.11 0.06 0.02 0.02 0.02 0.04 0.04 0.02 0.01 0.02 0.02 0.01 0.01 0.01 0.01 0.01 0.02 0.03 0.03 0.03 0.05 0.05 0.05 0.06 0.07 0.09 0.11 0.08 0.06 0.07 0.08 0.08 0.07 0.07 0.10 0.10 0.08 0.06 0.06 0.07
0.11 0.10 0.09 0.09 0.11 0.07 0.02 0.02 0.02 0.02 0.01 0.01 0.01 0.02 0.02 0.01 0.01 0.01 0.01 0.01 0.02 0.02 0.02 0.02 0.04 0.03 0.04 0.06 0.07 0.07 0.10 0.09 0.07 0.08 0.09 0.10 0.11 0.10 0.12 0.12 0.10 0.08 0.08 0.07
0.10 0.09 0.08 0.05 0.05 0.03 0.02 0.03 0.02 0.01 0.01 0.01 0.01 0.01 0.01 0.01 0.01 0.00 0.01 0.01 0.01 0.01 0.01 0.02 0.03 0.03 0.03 0.05 0.05 0.06 0.08 0.09 0.09 0.09 0.10 0.11 0.12 0.12 0.12 0.11 0.10 0.08 0.08 0.09
0.09 0.08 0.08 0.05 0.03 0.04 0.03 0.02 0.01 0.01 0.01 0.01 0.01 0.01 0.01 0.01 0.01 0.00 0.00 0.01 0.01 0.01 0.01 0.02 0.02 0.02 0.03 0.04 0.06 0.08 0.11 0.12 0.12 0.11 0.12 0.12 0.12 0.11 0.11 0.10 0.09 0.08 0.08 0.09
0.08 0.07 0.07 0.07 0.04 0.04 0.05 0.02 0.01 0.01 0.01 0.01 0.01 0.01 0.01 0.01 0.00 0.01 0.01 0.01 0.01 0.01 0.02 0.02 0.02 0.03 0.03 0.04 0.06 0.08 0.10 0.12 0.13 0.13 0.12 0.11 0.09 0.09 0.09 0.07 0.07 0.07 0.07 0.07
0.06 0.05 0.06 0.08 0.05 0.04 0.04 0.03 0.01 0.01 0.01 0.01 0.00 0.00 0.01 0.01 0.01 0.01 0.01 0.01 0.02 0.01 0.02 0.03 0.04 0.04 0.04 0.04 0.06 0.08 0.09 0.09 0.10 0.12 0.11 0.09 0.08 0.07 0.07 0.07 0.07 0.07 0.08 0.08

GEFSCGP_prec_meanprecacc_174.txt.gz
Total_Precipitation_Accumulation
0.55 0.71 0.80 0.76 0.78 0.84 0.73 0.68 0.64 0.51 0.42 0.43 0.41 0.39 0.41 0.38 0.35 0.36 0.37 0.35 0.39 0.31 0.27 0.21 0.19 0.17 0.22 0.25 0.23 0.22 0.27 0.28 0.26 0.24 0.29 0.34 0.35 0.44 0.51 0.59 0.64 0.69 0.72 0.80
0.56 0.59 0.53 0.55 0.61 0.73 0.73 0.73 0.68 0.61 0.44 0.40 0.40 0.41 0.38 0.35 0.33 0.28 0.26 0.24 0.29 0.27 0.25 0.20 0.18 0.13 0.10 0.11 0.14 0.17 0.18 0.19 0.18 0.18 0.23 0.32 0.39 0.45 0.58 0.74 0.85 0.87 0.85 0.91
0.54 0.49 0.42 0.45 0.52 0.64 0.64 0.60 0.55 0.62 0.54 0.48 0.51 0.52 0.42 0.38 0.35 0.29 0.22 0.22 0.25 0.24 0.21 0.19 0.18 0.15 0.10 0.09 0.09 0.12 0.15 0.17 0.17 0.23 0.41 0.68 0.93 1.01 1.03 1.05 1.20 1.29 1.25 1.20
0.66 0.46 0.38 0.40 0.45 0.49 0.66 0.48 0.42 0.52 0.64 0.61 0.50 0.55 0.38 0.38 0.39 0.32 0.26 0.23 0.23 0.24 0.22 0.19 0.16 0.16 0.10 0.10 0.11 0.11 0.13 0.17 0.20 0.36 0.69 1.07 1.40 1.50 1.50 1.62 1.67 1.72 1.64 1.50
0.53 0.37 0.36 0.39 0.36 0.42 0.63 0.50 0.50 0.54 0.57 0.54 0.34 0.35 0.28 0.30 0.38 0.35 0.32 0.31 0.31 0.27 0.24 0.20 0.17 0.15 0.15 0.16 0.18 0.20 0.24 0.36 0.51 0.66 0.83 1.13 1.33 1.44 1.59 1.75 1.89 2.01 2.12 2.09
0.38 0.31 0.33 0.34 0.33 0.36 0.45 0.54 0.65 0.65 0.62 0.57 0.27 0.25 0.27 0.28 0.30 0.32 0.33 0.35 0.34 0.28 0.22 0.21 0.21 0.21 0.24 0.30 0.33 0.35 0.44 0.52 0.59 0.70 0.84 0.98 1.07 1.24 1.44 1.59 1.76 1.91 2.02 2.04
0.37 0.33 0.28 0.27 0.40 0.43 0.44 0.62 0.86 0.92 0.86 0.59 0.22 0.22 0.25 0.21 0.21 0.23 0.26 0.25 0.25 0.25 0.24 0.23 0.22 0.28 0.32 0.38 0.41 0.47 0.56 0.64 0.66 0.73 0.83 0.91 0.97 1.10 1.27 1.32 1.36 1.40 1.40 1.43
0.36 0.38 0.26 0.22 0.29 0.35 0.36 0.43 0.70 0.84 0.69 0.47 0.23 0.28 0.30 0.19 0.14 0.12 0.14 0.17 0.21 0.28 0.30 0.29 0.28 0.35 0.42 0.48 0.56 0.63 0.71 0.72 0.73 0.80 0.90 0.90 0.99 1.11 1.21 1.15 1.10 1.13 1.17 1.25
0.31 0.30 0.17 0.18 0.20 0.23 0.34 0.35 0.39 0.48 0.38 0.39 0.28 0.27 0.21 0.11 0.09 0.08 0.13 0.21 0.28 0.37 0.38 0.39 0.41 0.46 0.51 0.57 0.65 0.70 0.75 0.78 0.84 0.87 0.95 1.09 1.13 1.13 1.11 1.00 0.95 0.97 0.94 0.95
0.24 0.29 0.21 0.20 0.22 0.24 0.29 0.36 0.42 0.47 0.51 0.48 0.32 0.27 0.22 0.14 0.15 0.19 0.25 0.33 0.43 0.52 0.55 0.55 0.60 0.65 0.66 0.65 0.71 0.75 0.81 0.88 0.90 0.92 1.03 1.20 1.14 0.92 0.76 0.66 0.71 0.76 0.80 0.84
0.17 0.25 0.26 0.22 0.21 0.24 0.29 0.28 0.33 0.39 0.39 0.57 0.68 0.67 0.56 0.52 0.43 0.48 0.50 0.57 0.73 0.75 0.77 0.76 0.78 0.81 0.76 0.75 0.79 0.81 0.84 0.95 0.98 0.94 1.03 1.06 0.85 0.61 0.49 0.48 0.46 0.45 0.47 0.53
0.12 0.20 0.24 0.18 0.14 0.14 0.22 0.22 0.22 0.39 0.41 0.48 0.77 0.84 0.75 0.77 0.74 0.84 0.91 1.04 0.99 0.94 0.93 0.85 0.79 0.76 0.65 0.65 0.72 0.78 0.86 0.91 0.85 0.81 0.79 0.65 0.47 0.38 0.35 0.32 0.26 0.22 0.22 0.23
0.12 0.18 0.28 0.28 0.23 0.15 0.15 0.13 0.13 0.19 0.36 0.46 0.79 0.88 0.69 0.76 0.87 1.01 1.10 1.11 0.92 0.77 0.67 0.61 0.57 0.51 0.45 0.48 0.53 0.57 0.67 0.73 0.56 0.45 0.43 0.39 0.32 0.30 0.26 0.22 0.19 0.17 0.17 0.16
0.13 0.16 0.24 0.30 0.25 0.14 0.12 0.10 0.10 0.16 0.33 0.40 0.55 0.64 0.59 0.68 0.84 0.94 0.97 0.84 0.61 0.46 0.38 0.32 0.25 0.23 0.25 0.27 0.27 0.25 0.29 0.38 0.33 0.26 0.23 0.23 0.23 0.23 0.23 0.23 0.24 0.18 0.15 0.16
0.14 0.16 0.14 0.13 0.09 0.07 0.07 0.08 0.09 0.13 0.19 0.32 0.41 0.44 0.46 0.46 0.50 0.52 0.55 0.51 0.38 0.26 0.18 0.12 0.11 0.11 0.15 0.16 0.15 0.12 0.10 0.13 0.17 0.18 0.17 0.19 0.19 0.19 0.18 0.20 0.20 0.17 0.14 0.12
0.13 0.13 0.10 0.09 0.06 0.05 0.04 0.06 0.08 0.11 0.16 0.23 0.25 0.25 0.23 0.18 0.15 0.15 0.18 0.21 0.17 0.11 0.07 0.06 0.05 0.06 0.07 0.07 0.07 0.06 0.04 0.05 0.06 0.07 0.07 0.09 0.11 0.13 0.15 0.15 0.15 0.13 0.11 0.09
0.13 0.13 0.12 0.10 0.06 0.08 0.06 0.03 0.05 0.09 0.10 0.13 0.16 0.19 0.19 0.13 0.07 0.05 0.06 0.07 0.07 0.07 0.07 0.06 0.04 0.04 0.06 0.05 0.05 0.06 0.05 0.04 0.04 0.04 0.03 0.04 0.05 0.05 0.06 0.05 0.06 0.05 0.05 0.04
0.11 0.13 0.15 0.13 0.12 0.12 0.06 0.03 0.03 0.03 0.04 0.07 0.09 0.11 0.12 0.08 0.06 0.05 0.04 0.04 0.05 0.05 0.06 0.07 0.06 0.05 0.08 0.08 0.07 0.08 0.08 0.06 0.04 0.03 0.03 0.03 0.04 0.04 0.04 0.03 0.03 0.02 0.02 0.03
0.11 0.14 0.18 0.16 0.14 0.07 0.04 0.04 0.04 0.03 0.02 0.03 0.03 0.02 0.02 0.03 0.05 0.04 0.03 0.03 0.04 0.05 0.05 0.05 0.07 0.07 0.07 0.08 0.09 0.10 0.08 0.07 0.05 0.04 0.04 0.04 0.05 0.06 0.06 0.05 0.05 0.03 0.03 0.04
0.13 0.13 0.18 0.17 0.14 0.10 0.05 0.03 0.03 0.03 0.04 0.02 0.02 0.01 0.01 0.02 0.04 0.02 0.01 0.02 0.03 0.05 0.05 0.05 0.05 0.06 0.06 0.07 0.10 0.10 0.08 0.07 0.05 0.06 0.07 0.07 0.06 0.06 0.07 0.06 0.07 0.06 0.06 0.05
0.14 0.14 0.14 0.14 0.13 0.07 0.02 0.02 0.02 0.04 0.05 0.03 0.02 0.02 0.02 0.02 0.03 0.02 0.02 0.01 0.03 0.04 0.04 0.04 0.05 0.06 0.05 0.07 0.08 0.10 0.11 0.08 0.06 0.08 0.09 0.09 0.08 0.08 0.11 0.12 0.09 0.07 0.07 0.07
0.13 0.12 0.11 0.11 0.12 0.07 0.03 0.02 0.02 0.02 0.02 0.01 0.01 0.02 0.02 0.01 0.02 0.01 0.02 0.02 0.02 0.03 0.04 0.03 0.04 0.05 0.05 0.07 0.07 0.08 0.10 0.10 0.08 0.09 0.10 0.11 0.12 0.12 0.14 0.14 0.11 0.09 0.08 0.08
0.12 0.11 0.10 0.06 0.06 0.03 0.03 0.04 0.03 0.01 0.01 0.01 0.01 0.01 0.01 0.01 0.01 0.01 0.02 0.02 0.02 0.02 0.02 0.03 0.04 0.04 0.04 0.06 0.06 0.07 0.09 0.10 0.09 0.10 0.11 0.12 0.14 0.14 0.14 0.13 0.12 0.10 0.09 0.10
0.11 0.09 0.10 0.06 0.03 0.04 0.03 0.02 0.02 0.02 0.01 0.01 0.01 0.01 0.01 0.01 0.01 0.01 0.01 0.01 0.01 0.01 0.02 0.02 0.03 0.03 0.04 0.05 0.07 0.11 0.12 0.13 0.13 0.12 0.13 0.13 0.14 0.13 0.13 0.13 0.11 0.10 0.10 0.10
0.10 0.09 0.09 0.08 0.05 0.04 0.05 0.03 0.01 0.01 0.01 0.01 0.01 0.01 0.01 0.01 0.00 0.01 0.01 0.01 0.01 0.01 0.02 0.03 0.03 0.04 0.04 0.05 0.07 0.10 0.12 0.13 0.13 0.14 0.13 0.11 0.11 0.11 0.11 0.10 0.09 0.09 0.09 0.09
0.07 0.07 0.07 0.08 0.05 0.04 0.05 0.03 0.01 0.01 0.01 0.01 0.00 0.00 0.01 0.01 0.01 0.01 0.01 0.02 0.02 0.02 0.02 0.04 0.06 0.05 0.05 0.06 0.07 0.09 0.10 0.10 0.10 0.13 0.12 0.10 0.09 0.08 0.08 0.09 0.09 0.08 0.09 0.09